Regional Weather Roundup
Issued by NWS

Home | Current Version | Previous Version | Graphics & Text | Print | Product List | Glossary On
Versions: 1 2 3 4 5 6 7 8 9 10 11 12 13 14 15 16 17 18 19 20 21 22 23 24 25 26 27 28 29 30 31 32 33 34 35 36 37 38 39 40 41 42 43 44 45 46 47 48 49 50
000
ASUS44 KMEG 270410
RWRTN
TENNESSEE HOURLY STATE WEATHER ROUNDUP
NATIONAL WEATHER SERVICE MEMPHIS TN
1100 PM CDT TUE AUG 26 2014

TNZ002-004-019-021-049-052-054-088>092-270500-
WEST TENNESSEE

CITY           SKY/WX    TMP DP  RH WIND       PRES   REMARKS
MEMPHIS INTL   CLEAR     82  71  69 E6        30.06S
NWS MEMPHIS      N/A     77 N/A N/A MISG        N/A
JACKSON        CLEAR     75  73  93 CALM      30.08R
DYERSBURG      CLEAR     73  64  73 CALM      30.08S
UNION CITY     CLEAR     73  73 100 CALM      30.06F
PARIS          CLEAR     70  70 100 CALM      30.09F
HUNTINGDON     CLEAR     74  73  96 CALM      30.08S
LEXINGTON      PTCLDY    72  72 100 CALM      30.08S
SAVANNAH       CLEAR     72  72 100 CALM      30.09S
$$

TNZ008-025-027-028-033-062-065-066-270500-
NORTH MIDDLE TENNESSEE

CITY           SKY/WX    TMP DP  RH WIND       PRES   REMARKS
NASHVILLE      PTCLDY    76  70  82 CALM      30.09S
DICKSON        PTCLDY    73  72  94 CALM      30.10R
PORTLAND       CLEAR     73  72  94 CALM      30.09S
CLARKSVILLE    CLEAR     75  73  93 CALM      30.09R
LEBANON        PTCLDY    73  70  91 CALM      30.08R
SMYRNA         CLEAR     74  70  87 CALM      30.10R
MURFREESBORO   PTCLDY    75  69  81 CALM      30.09R
COOKEVILLE     CLEAR     70  68  94 CALM      30.11S
LIVINGSTON     CLEAR     72  65  78 CALM      30.13S
GALLATIN       PTCLDY    76  73  90 CALM      30.10S
CROSSVILLE     CLEAR     70  66  87 CALM      30.16S
$$

TNZ061-075-076-078-094-096-097-270500-
SOUTH MIDDLE TENNESSEE

CITY           SKY/WX    TMP DP  RH WIND       PRES   REMARKS
LEWISBURG      PTCLDY    69  66  90 CALM      30.10S
FAYETTEVILLE   CLEAR     70  66  88 NE5       30.11R
TULLAHOMA      PTCLDY    70  66  88 CALM      30.13R
WINCHESTER     CLEAR     68  66  94 CALM      30.11S
MCMINNVILLE    CLEAR     70  70 100 CALM      30.12R
COLUMBIA         N/A     72  72 100 CALM      30.09R
SHELBYVILLE    CLEAR     72  70  94 SE3       30.11S
$$

TNZ017-018-042-046-047-270500-
NORTHEAST TENNESSEE

CITY           SKY/WX    TMP DP  RH WIND       PRES   REMARKS
TRI CITIES     CLEAR     63  59  87 CALM      30.14F
ELIZABETHTON   CLEAR     63  55  77 E3        30.16S
$$

TNZ012-013-036-069-073-074-270500-
CENTRAL EAST TENNESSEE

CITY           SKY/WX    TMP DP  RH WIND       PRES   REMARKS
KNOXVILLE      CLEAR     71  64  78 CALM      30.09F
OAK RIDGE      CLEAR     70  67  90 CALM      30.12S
GATLINBURG     CLEAR     66  63  88 CALM      30.10F
MORRISTOWN     CLEAR     68  63  83 CALM      30.13S
$$

TNZ083-085-099-270500-
SOUTHEAST TENNESSEE

CITY           SKY/WX    TMP DP  RH WIND       PRES   REMARKS
CHATTANOOGA    PTCLDY    74  67  78 CALM      30.09F
$$

SKY/WX REPORTED AS FAIR MEANS FEW OR NO CLOUDS BELOW
12 THOUSAND FEET.



USA.gov is the U.S. government's official web portal to all federal, state and local government web resources and services.